Weather History for KFLG - August, 2012

Change the Weather History Date:

Tuesday, August 7, 2012

  Actual Average Record
Temperature  
Mean Temperature 67 °F 65 °F  
Max Temperature 83 °F 79 °F 92 °F (1978)
Min Temperature 51 °F 52 °F 39 °F (1991)
Degree Days  
Heating Degree Days 0 1  
Month to date heating degree days 2 7  
Since 1 June heating degree days 90  
Since 1 July heating degree days 18 39  
Cooling Degree Days 2 2  
Month to date cooling degree days 7 14  
Year to date cooling degree days 113 95  
Since 1 June cooling degree days 113  
Growing Degree Days 16 (Base 50)    
Moisture  
Dew Point 51 °F    
Average Humidity 57    
Maximum Humidity 86    
Minimum Humidity 28    
Precipitation  
Precipitation 0.00 in 0.10 in 1.14 in (1937)
Month to date precipitation 0.14 0.76  
Year to date precipitation 8.05 11.84  
Snow  
Snow 0.00 in 0.00 in 0.00 in (2002)
Month to date snowfall 0.0 0.0  
Since 1 July snowfall 0.0 0.0  
Snow Depth 0.00 in    
Sea Level Pressure  
Sea Level Pressure 30.12 in    
Wind  
Wind Speed 2 mph (NNE)    
Max Wind Speed 13 mph    
Max Gust Speed 18 mph    
Visibility 10 miles    
Events Thunderstorm    
T = Trace of Precipitation, MM = Missing Value Source: NWS Daily Summary

Daily Weather History Graph

Daily Weather History Graph

Search for Another Location

Airport or City:

Trip Planner

Search our weather history database for the weather conditions in past years. The results will help you decide how hot, cold, wet, or windy it might be!

Date:

Astronomy

Aug. 07, 2012 Rise Set
Actual Time 5:40 AM MST 7:23 PM MST
Civil Twilight 5:13 AM MST 7:50 PM MST
Nautical Twilight 4:40 AM MST 8:23 PM MST
Astronomical Twilight 4:05 AM MST 8:58 PM MST
Moon 10:23 PM MST (8/7) 11:15 AM MST (8/7)
Length of Visible Light 14h 37m
Length of Day
13h 42m
Waning Gibbous, 69% of the Moon is Illuminated
Aug 7
Waning Gibbous
Aug 9
Last Quarter
Aug 17
New
Aug 24
First Quarter
Aug 31
Full

Hourly Weather History & Observations

Time (MST) Temp. Dew Point Humidity Pressure Visibility Wind Dir Wind Speed Gust Speed Precip Events Conditions
12:57 AM 55.0 °F 48.0 °F 77% 30.10 in 10.0 mi Calm Calm - N/A   Clear
1:57 AM 54.0 °F 48.0 °F 80% 30.10 in 10.0 mi Calm Calm - N/A   Clear
2:57 AM 53.1 °F 48.0 °F 83% 30.11 in 10.0 mi Calm Calm - N/A   Clear
3:57 AM 52.0 °F 46.9 °F 83% 30.12 in 10.0 mi Calm Calm - N/A   Clear
4:57 AM 51.1 °F 46.9 °F 86% 30.12 in 10.0 mi Calm Calm - N/A   Clear
6:57 AM 55.9 °F 51.1 °F 84% 30.16 in 10.0 mi Calm Calm - N/A   Partly Cloudy
7:57 AM 64.0 °F 55.0 °F 73% 30.14 in 10.0 mi Calm Calm - N/A   Clear
8:57 AM 75.0 °F 51.1 °F 43% 30.10 in 10.0 mi Calm Calm - N/A   Clear
9:57 AM 79.0 °F 48.9 °F 35% 30.09 in 10.0 mi Variable 4.6 mph - N/A   Clear
10:57 AM 81.0 °F 46.0 °F 29% 30.09 in 10.0 mi East 6.9 mph - N/A   Clear
11:57 AM 82.9 °F 46.9 °F 28% 30.08 in 10.0 mi Variable 4.6 mph - N/A   Partly Cloudy
12:10 PM 78.8 °F 46.4 °F 32% 30.42 in 10.0 mi West 10.4 mph 16.1 mph N/A Thunderstorm Thunderstorm
12:57 PM 68.0 °F 51.1 °F 55% 30.17 in 10.0 mi North 10.4 mph 18.4 mph N/A Thunderstorm Thunderstorm
1:57 PM 70.0 °F 55.9 °F 61% 30.15 in 10.0 mi NE 12.7 mph - N/A Thunderstorm Thunderstorm
2:57 PM 70.0 °F 51.1 °F 51% 30.15 in 10.0 mi North 4.6 mph - N/A   Clear
3:57 PM 71.1 °F 50.0 °F 47% 30.12 in 10.0 mi SE 5.8 mph - N/A   Clear
4:57 PM 70.0 °F 52.0 °F 53% 30.11 in 10.0 mi Calm Calm - N/A   Mostly Cloudy
5:57 PM 72.0 °F 54.0 °F 53% 30.08 in 10.0 mi Calm Calm - N/A   Clear
6:57 PM 66.9 °F 55.9 °F 68% 30.08 in 10.0 mi Calm Calm - N/A   Clear
7:57 PM 66.9 °F 55.0 °F 66% 30.06 in 10.0 mi Calm Calm - N/A   Clear
8:57 PM 60.1 °F 54.0 °F 80% 30.06 in 10.0 mi Calm Calm - N/A   Clear
9:57 PM 59.0 °F 53.1 °F 81% 30.05 in 10.0 mi Calm Calm - N/A   Clear
10:57 PM 57.0 °F 52.0 °F 83% 30.05 in 10.0 mi Calm Calm - N/A   Clear